TimePDT,TemperatureF,Dew PointF,Humidity,Sea Level PressureIn,VisibilityMPH,Wind Direction,Wind SpeedMPH,Gust SpeedMPH,PrecipitationIn,Events,Conditions,WindDirDegrees,DateUTC
12:52 AM,82.0,70.0,67,29.80,10.0,North,9.2,-,N/A,,Clear,350,2013-08-27 07:52:00
1:52 AM,82.0,71.1,69,29.78,10.0,WNW,5.8,-,N/A,,Clear,290,2013-08-27 08:52:00
2:52 AM,80.1,71.1,74,29.78,10.0,Calm,Calm,-,N/A,,Clear,0,2013-08-27 09:52:00
3:52 AM,80.1,71.1,74,29.78,10.0,North,3.5,-,N/A,,Clear,350,2013-08-27 10:52:00
4:52 AM,79.0,71.1,77,29.78,10.0,Calm,Calm,-,N/A,,Clear,0,2013-08-27 11:52:00
5:52 AM,78.1,73.0,84,29.79,10.0,North,3.5,-,N/A,,Clear,350,2013-08-27 12:52:00
6:52 AM,79.0,71.1,77,29.80,10.0,NNW,3.5,-,N/A,,Clear,330,2013-08-27 13:52:00
7:52 AM,84.0,70.0,63,29.81,10.0,North,5.8,-,N/A,,Clear,360,2013-08-27 14:52:00
8:52 AM,86.0,68.0,55,29.82,10.0,North,3.5,-,N/A,,Clear,360,2013-08-27 15:52:00
9:52 AM,88.0,66.9,49,29.82,10.0,Calm,Calm,-,N/A,,Clear,0,2013-08-27 16:52:00
10:52 AM,90.0,66.0,45,29.81,10.0,NNW,3.5,-,N/A,,Clear,330,2013-08-27 17:52:00
11:52 AM,91.9,64.9,41,29.79,10.0,Calm,Calm,-,N/A,,Clear,0,2013-08-27 18:52:00
12:52 PM,95.0,64.9,37,29.77,10.0,Calm,Calm,-,N/A,,Clear,0,2013-08-27 19:52:00
1:52 PM,99.0,64.0,32,29.75,10.0,Calm,Calm,-,N/A,,Clear,0,2013-08-27 20:52:00
2:52 PM,99.0,64.9,33,29.72,10.0,WSW,3.5,-,N/A,,Clear,240,2013-08-27 21:52:00
3:52 PM,100.0,64.0,31,29.69,10.0,Calm,Calm,-,N/A,,Clear,0,2013-08-27 22:52:00
4:52 PM,100.0,64.0,31,29.67,10.0,Variable,5.8,-,N/A,,Clear,0,2013-08-27 23:52:00
5:52 PM,100.0,64.9,32,29.66,10.0,SW,4.6,-,N/A,,Clear,220,2013-08-28 00:52:00
6:52 PM,99.0,64.9,33,29.67,10.0,WSW,5.8,-,N/A,,Clear,240,2013-08-28 01:52:00
7:52 PM,98.1,64.9,34,29.67,10.0,WSW,9.2,-,N/A,,Clear,250,2013-08-28 02:52:00
8:52 PM,97.0,66.0,36,29.69,10.0,West,4.6,-,N/A,,Clear,260,2013-08-28 03:52:00
9:52 PM,95.0,68.0,41,29.69,10.0,West,4.6,-,N/A,,Clear,280,2013-08-28 04:52:00
10:52 PM,95.0,68.0,41,29.69,10.0,WNW,4.6,-,N/A,,Clear,290,2013-08-28 05:52:00
11:52 PM,93.0,69.1,45,29.69,10.0,Calm,Calm,-,N/A,,Clear,0,2013-08-28 06:52:00